Regional Weather Roundup
Issued by NWS

Home | Current Version | Previous Version | Text Only | Print | Product List | Glossary On
Versions: 1 2 3 4 5 6 7 8 9 10 11 12 13 14 15 16 17 18 19 20 21 22 23 24 25 26 27 28 29 30 31 32 33 34 35 36 37 38 39 40 41 42 43 44 45 46 47 48 49 50
000
ASUS45 KCYS 231910
RWRWY

WYOMING REGIONAL WEATHER ROUNDUP
NATIONAL WEATHER SERVICE CHEYENNE WY
100 PM MDT MON APR 23 2018

NOTE:  "FAIR" INDICATES FEW OR NO CLOUDS BELOW 12,000 FEET
WITH NO SIGNIFICANT WEATHER AND/OR OBSTRUCTIONS TO VISIBILITY.

WYZ001-232000-
YELLOWSTONE NATIONAL PARK

CITY           SKY/WX    TMP DP  RH WIND       PRES   REMARKS
LK YELLOWSTONE   N/A     32  28  85 CALM      30.21R
W YELLOWSTONE  NOT AVBL

$$
WYZ002>013-054>058-071-098>099-232000-
NORTHERN WYOMING

CITY           SKY/WX    TMP DP  RH WIND       PRES   REMARKS
JACKSON        CLOUDY    50  26  39 SW15      30.16R
CODY           MIX PCPN  35  31  85 NW17G25   30.27R FOG     WCI  25
GREYBULL       LGT RAIN  39  37  92 NW22G28   30.17R WCI  29
WORLAND        LGT RAIN  39  37  92 NW13      30.20S WCI  31
SHERIDAN       SNOW      33  33 100 NW24      30.24R VSB 1/2 WCI  20
BUFFALO        SNOW      33  32  96 N18G25    30.18S VSB 1/4 WCI  22
GILLETTE       CLOUDY    53  40  61 N17       30.05R
HULETT         FAIR      61  41  48 E17G30    30.03F
NEWCASTLE      FAIR      63  32  31 SE15G25   30.01F

$$
WYZ014>020-022>026-101>103-232000-
CENTRAL WYOMING

CITY           SKY/WX    TMP DP  RH WIND       PRES   REMARKS
BIG PINEY      FAIR      53  21  28 W16G25    30.15R
PINEDALE       CLOUDY    46  25  42 NW12G23   30.15F
DUBOIS         CLOUDY    43  27  52 W14       30.12R
LANDER         CLOUDY    42  36  79 NE6       30.13S
RIVERTON       CLOUDY    42  32  67 NE21      30.14S
CASPER         CLOUDY    50  34  54 N20       30.11R
DOUGLAS        LGT RAIN  60  49  66 W17G23    30.03R

$$
WYZ021-027>030-104>119-232000-
SOUTHERN WYOMING

CITY           SKY/WX    TMP DP  RH WIND       PRES   REMARKS
EVANSTON       FAIR      53  26  35 W15G31    30.17F
KEMMERER       FAIR      50  25  37 W21G28    30.17S
FORT BRIDGER   MOCLDY    55  24  30 W24       30.19F
ROCK SPRINGS   FAIR      57  24  28 W20G36    30.13F
DIXON          FAIR      59  32  35 W5        30.14F
RAWLINS        FAIR      58  33  39 W17G25    30.11F
SARATOGA       FAIR      59  32  36 NW18G24   30.13S
LARAMIE        CLOUDY    58  31  35 W15       30.08R
CHEYENNE       PTSUNNY   61  35  37 S17G24    30.05F
TORRINGTON     FAIR      70  40  33 SE18G28   29.97F
PINE BLUFFS    FAIR      64  34  32 SE17      30.04F

$$



USA.gov is the U.S. government's official web portal to all federal, state and local government web resources and services.